OPS 4682 DEB, 14048

Orbit data source: Space-Track

OPS 4682 DEB, 14048 is space debris in LEO originally from a launch on Sat, 03 Apr 1965 UTC launched from the Air Force Western Test Range (AFWTR). Debris objects in space refer to the collection of defunct objects orbiting the Earth. Examples of debris include non-operational satellites, rocket bodies, and fragments generated from explosions, collisions, or faulty payload assembly.

Loading next visibility...
Identifier
14048, 1965-027K
Orbit
LEO
Country
Flag of USUS
Related business
Manufacturer
Unknown
Mission
Spacecraft
Bus & Motor
Unknown
Mass
Unknown
Launch date (UTC)
1965-04-03 (61 years ago)
Launch vehicle
Unknown
Launch site
Air Force Western Test Range (AFWTR)
Object type
Payload
Rocket body
Debris
Shape & HBR
Unknown shape, 0.1 m
Radar Cross Section
Medium (>0.1 m² and <1 m²)

Expand to show TLE details & history
Last TLE update: 3 days ago

TLE from 3 days ago
0 OPS 4682 DEB
1 14048U 65027K   26261.32082793  .00000794  00000-0  26415-2 0  9998
2 14048  90.2549  16.9497 0015561  39.3332 348.6591 12.99266891 65803
Epoch: 2026-09-18T07:41Z
TLE epoch observation values (Epoch: 2026-09-18T07:41:59.533Z)
Latitude
27.9951°
Longitude
-95.92858°
Altitude
1,256.741 km
Speed
7.235 km/s
True Right ascension
01h 07m 15s
True Declination
27° 51' 44"
Sunlit
Object was in full shadow at epoch
Visualization orbit readout
Latitude
Unknown
Longitude
Unknown
Altitude
Unknown
Speed
Unknown
Apparent Right ascension
Unknown
Apparent Declination
Unknown
Sunlit
N/A
Visualization observer readout
Local Sidereal Time
04:58:17
Azimuth
Unknown
Elevation
Unknown
Doppler factor
Unknown
Orbital elements
Apogee altitude
1,273.977 km
Perigee altitude
1,250.199 km
Semi-major axis
7,640.225 km
Eccentricity
0.00156
Inclination
90.2549°
RAAN
16.9497°
Arg. of periapsis
39.3332°
True anomaly
348.62397°
Mean anomaly
348.6591°
Eccentric anomaly
348.64154°
Mean motion
3.25 °/min
Orbital period
110.77 mins
BSTAR
0.0026415
Loading maneuver chart data...
Computing Atmospheric mass density...
Loading historical data...
Loading historical data...
Loading historical data...
Loading historical data...
Loading historical data...
Loading historical data...
Loading historical data...

Documentation

Showing up to 5 results
|